Regional Weather Roundup
Issued by NWS

Home | Current Version | Previous Version | Graphics & Text | Print | Product List | Glossary On
Versions: 1 2 3 4 5 6 7 8 9 10 11 12 13 14 15 16 17 18 19 20 21 22 23 24 25 26 27 28 29 30 31 32 33 34 35 36 37 38 39 40 41 42 43 44 45 46 47 48 49 50
000
ASUS45 KBOU 290507
RWRCO

WEATHER ROUNDUP FOR COLORADO
NATIONAL WEATHER SERVICE DENVER/BOULDER CO
1000 PM MST SUN DEC 28 2014

NOTE: "FAIR" INDICATES FEW OR NO CLOUDS BELOW 12000 FEET WITH NO
SIGNIFICANT WEATHER AND/OR OBSTRUCTIONS TO VISIBILITY.

COZ001>005-013-030-031-290600-
...NORTHWEST COLORADO...

CITY           SKY/WX    TMP DP  RH WIND       PRES   REMARKS
CRAIG            N/A     18  14  84 CALM      29.98R
HAYDEN         CLOUDY    18  16  93 N6        29.96R WCI   9
MEEKER         LGT SNOW  21  17  84 CALM      29.98S FOG
MOUNT WERNER   NOT AVBL
STEAMBOAT SPGS CLOUDY    18  15  90 CALM      29.95S
WALDEN         CLOUDY    12   9  85 N7        29.88R WCI   2
$$

COZ006>008-011-290600-
...WEST CENTRAL VALLEYS...

CITY           SKY/WX    TMP DP  RH WIND       PRES   REMARKS
GRAND JUNCTION CLOUDY    21  16  81 NE3       30.03S
MONTROSE       PTCLDY    15  10  80 S5        30.01S WCI   8
EAGLE          FLURRIES  19  16  86 CALM      29.99S
RIFLE          CLOUDY    21  15  78 SW5       30.03R WCI  15
DELTA          PTCLDY    23  13  64 NE6       30.02S WCI  16
NUCLA          PTCLDY    23  14  68 E9        30.04S WCI  13
$$

COZ017>023-064>068-290600-
...SOUTHWEST COLORADO...

CITY           SKY/WX    TMP DP  RH WIND       PRES   REMARKS
DURANGO        CLEAR      8   4  83 CALM      30.05S
CORTEZ         CLEAR     10   6  84 E5        30.06R WCI   2
PAGOSA SPRINGS CLEAR      4   1  87 CALM      30.03S
TELLURIDE      NOT AVBL
WOLF CREEK PAS FLURRIES   3   1  92 MISG      29.91R
$$

COZ009-010-012-014-032>034-037-058>063-290600-
...CENTRAL COLORADO...

CITY           SKY/WX    TMP DP  RH WIND       PRES   REMARKS
ASPEN          FLURRIES  12   9  87 NW5       29.91F WCI   4
BUENA VISTA    MOCLDY    12   4  71 S3        29.91S
COPPER MTN     LGT SNOW   9   1  72 W17       29.79S WCI -10
BERTHOUD PASS  NOT AVBL
COTTONWOOD PAS CLOUDY    19  10  68 N3        29.86S
GUNNISON       MOCLDY    -4 -24  38 CALM      30.01S
KREMMLING      CLOUDY    18  12  79 CALM      29.94S
LEADVILLE      CLOUDY    12   3  67 NW8G18    29.83F WCI   0
MONARCH PASS   CLOUDY     5   1  85 MISG      29.93S
SALIDA         MOCLDY    26   8  47 W14G21    29.99S WCI  14
SUNLIGHT       LGT SNOW N/A N/A N/A CALM      29.86R VSB 3/4
WILKERSON PASS PTCLDY     7   3  85 SW8       29.84S WCI  -6
$$

COZ069>075-290600-
...SAN LUIS VALLEY/SANGRE DE CRISTO MOUNTAINS...

CITY           SKY/WX    TMP DP  RH WIND       PRES   REMARKS
ALAMOSA        MOCLDY    -2  -7  79 W3        30.00R
LA VETA PASS   NOT AVBL
SAGUACHE       PTCLDY     1  -4  78 N3        29.99R
$$

COZ035-036-038>040-290600-
...NORTHERN COLORADO FRONT RANGE...

CITY           SKY/WX    TMP DP  RH WIND       PRES   REMARKS
DENVER INTL AP PTCLDY    15  10  80 SW9       29.93R WCI   3
DMNS CITY PARK   N/A     18  13  82 SE2       29.94R
AURORA         PTCLDY    16  10  77 SW6       29.94R WCI   8
FRONT RANGE AP PTCLDY    19  12  73 S12       29.93S WCI   7
ERIE MUNI ARPT   N/A      7   5  89 MISG      29.95R
BOULDER MUN AP PTCLDY    18  12  79 S5        29.93S WCI  11
CENTENNIAL     MOCLDY    17   9  70 S3        29.92R
BROOMFIELD     PTCLDY    21  10  63 W6        29.93R WCI  14
FORT COLLINS   MOCLDY    10   9  92 N3        29.95R
LONGMONT       MOCLDY     6   1  80 CALM      29.96S
$$

COZ041-046-047-076>085-087-088-290600-
...PIKES PEAK/PALMER DIVIDE AND SOUTHERN FOOTHILLS...

CITY           SKY/WX    TMP DP  RH WIND       PRES   REMARKS
COLO. SPRINGS  PTCLDY    24   8  50 VRB3      29.92R
A. F. ACADEMY  PTCLDY    23   6  47 S3        29.90R
ELLICOTT       NOT AVBL
FALCON         PTCLDY    21   6  51 S5        29.90S WCI  15
FORT CARSON    PTCLDY    25  11  57 SW1       29.91R
LIMON          CLEAR      9   6  88 CALM      29.94R
MONUMENT HILL  CLEAR     10   5  79 SW3       29.89S
TRINIDAD       PTCLDY    18   6  59 SW12      29.94R WCI   5
$$

COZ042>045-048>051-090-091-290600-
...NORTHEAST COLORADO...

CITY           SKY/WX    TMP DP  RH WIND       PRES   REMARKS
GREELEY ARPT   MOCLDY     5  -4  66 CALM      29.95S
AKRON          PTCLDY    12   9  87 SW6       29.94S WCI   3
BURLINGTON     CLEAR     18  14  84 NW3       29.98R
WRAY           PTCLDY    11   9  92 SW6       30.01R WCI   1
STERLING       PTCLDY    12   9  85 SW5       29.98S WCI   4
HOLYOKE        PTCLDY     5   1  85 N3        30.00R
FORT MORGAN    MOCLDY    15  11  85 SW5       29.97R WCI   7
$$

COZ086-089-092>099-290600-
...SOUTHEAST COLORADO...

CITY           SKY/WX    TMP DP  RH WIND       PRES   REMARKS
PUEBLO         CLEAR     24   7  48 CALM      29.94R
LA JUNTA       CLEAR     21  16  81 N8        29.95R WCI  11
LAMAR          CLEAR     14  11  87 CALM      29.95R
SPRINGFIELD      N/A     17  13  84 W6        29.93R WCI   9
$$


USA.gov is the U.S. government's official web portal to all federal, state and local government web resources and services.